Flag for Brazil Weather past 2 weeks in Teresina, Piauí, Brazil

Now
73 °F

Scattered clouds.


Feels Like: 68 °F
Forecast: 74 / 88 °F
Wind: No wind

Location: Teresina Aeroporto

Current Time: May 28, 2015 at 6:19:47 AM

Latest Report: May 28, 2015 at 6:00 AM


Visibility: N/A

Pressure: 29.89 "Hg

Humidity: 100%

Dew point: 73 °F

Location of TeresinaLocation

Historic Weather in Teresina — Graph

°F

Teresina temperature yesterday

Maximum temperature yesterday: 90 °F (at 1:00 PM)
Minimum temperature yesterday: 75 °F (at 2:03 PM)
Average temperature yesterday: 80 °F

Past Weeks' High & Low Weather Summary

 TemperatureHumidityPressure
High93 °F (May 13, 2:00 PM)100% (May 13, 5:00 AM)30.01 "Hg (May 13, 5:00 AM)
Low73 °F (May 28, 5:00 AM)52% (May 16, 2:00 PM)29.80 "Hg (May 13, 4:00 PM)
Average83 °F82%29.89 "Hg
* Reported May 13 5:00 AM — May 28 5:00 AM, Teresina, Weather by CustomWeather, © 2015

Note: Actual official high and low records may vary slightly from our data, if they occured in-between our weather recording intervals... More about our weather records

Advertising

Teresina weather history for previous 24 hours

 ConditionsComfort  
Time TempWeatherWind HumidityBarometerVisibility
5:00 AM
Thu, May 28
73 °FPassing clouds.No wind100%29.86 "HgN/A
4:00 AM75 °FPassing clouds.No wind100%29.86 "HgN/A
3:00 AM75 °FPassing clouds.2 mph100%29.86 "HgN/A
2:00 AM75 °FPassing clouds.3 mph100%29.86 "HgN/A
1:00 AM75 °FPassing clouds.5 mph100%29.89 "HgN/A
12:00 AM77 °FPassing clouds.6 mph94%29.92 "HgN/A
11:00 PM
Wed, May 27
77 °FPartly cloudy.6 mph94%29.92 "HgN/A
10:00 PM79 °FPassing clouds.5 mph94%29.92 "HgN/A
9:00 PM79 °FClear.3 mph94%29.92 "Hg10 mi
8:00 PM79 °FClear.2 mph89%29.89 "Hg10 mi
7:00 PM79 °FClear.2 mph94%29.86 "Hg10 mi
6:00 PM79 °FPassing clouds.3 mph94%29.86 "HgN/A
5:00 PM79 °FPartly sunny.3 mph100%29.83 "HgN/A
4:00 PM79 °FPartly sunny.3 mph94%29.80 "HgN/A
3:00 PM79 °FPartly sunny.No wind94%29.83 "HgN/A
2:03 PM75 °FThunderstorms. Broken clouds.12 mph100%N/A6 mi
2:00 PM79 °FRain. Partly sunny.14 mph94%29.89 "Hg2 mi
1:00 PM90 °FPartly sunny.7 mph67%29.86 "HgN/A
12:00 PM88 °FPartly sunny.6 mph70%29.89 "HgN/A
11:00 AM88 °FPartly sunny.6 mph75%29.92 "HgN/A
10:00 AM84 °FScattered clouds.5 mph79%29.92 "HgN/A
9:00 AM84 °FScattered clouds.5 mph84%29.92 "HgN/A
8:00 AM81 °FScattered clouds.2 mph89%29.92 "HgN/A
7:00 AM77 °FBroken clouds.3 mph100%29.92 "HgN/A
6:00 AM77 °FOvercast.No wind100%29.89 "HgN/A
Weather by CustomWeather, © 2015

See weather overviewHow to use our weather pages